Weather in Seryshevo

Russia / Amur Oblast     51°05′32″N   128°22′55″E
temp.,
°C
wind,
m/s
gust,
m/s
humid.,
%
clouds,
%
prec.,
mm/h
press.,
hPa
HPBL,
m
16 april, fri
fri1600:00+2ese3346100 0.0 101252
03:00+1e3750100 0.0 1011167
06:00+1ene51148100 0.0 1011303
09:00+2ene51051100 0.4 1011970
12:00+3ne71071100 1.4 1010870
15:00+3ene71090100 2.5 1010705
18:00+2ne5995100 1.2 1010469
21:00+3ne51084100 1.2 1011406
17 april, sat
sat1700:00+2ne5119696 0.8 1010482
03:00+1nne599699 1.2 1010392
06:000n4896100 0.6 1011244
09:00+1nne469599 1.0 1012273
12:00+6ene227694 0.1 1012678
15:00+8sse216438 0.1 1011879
18:00+8s33695 0.0 1012396
21:00+3ssw35925 0.0 101380
18 april, sun
sun1800:00+2ssw34910 0.0 101354
03:00+1s34900 0.0 101358
06:000s36920 0.0 101397
09:00+6s57630 0.0 1012411
12:00+11s56430 0.0 1010979
15:00+13ssw55345 0.0 10081214
18:00+12s45390 0.0 1007890
21:00+8s36605 0.0 100888
19 april, mon
mon1900:00+6s34685 0.0 100846
03:00+5sse34732 0.0 100749
06:00+4ssw33795 0.0 100732
09:00+7nw78620 0.0 1008668
12:00+9nw9104979 0.0 10091243
15:00+10nnw1012305 0.0 10101723
18:00+7nnw1013280 0.0 10131695
21:00+2nnw915340 0.0 10171302
20 april, tue
tue2000:00−1nnw914380 0.0 10191059
03:00−3nw815400 0.0 1019974
06:00−4nw714350 0.0 1020820
09:00+1nw79210 0.0 10201028
12:00+5nw57145 0.0 10191336
15:00+9wnw46165 0.0 10171548
18:00+10ssw25215 0.0 10151194
21:00+5sse474257 0.0 1016106